Tracking 35334 objects as of 12-Sep-2026
HD Live streaming from Space Station
objects crossing your sky now

STARLINK-11554

Track STARLINK-11554 now!
10-day predictions
STARLINK-11554 is classified as:


NORAD ID: 62833
Int'l Code: 2025-019E
Launch date: January 27, 2025
Source: United States (US)
Launch site: AIR FORCE EASTERN TEST RANGE (AFETR)
Your satellite tracking list
Your tracking list is empty




NASA's NSSDC Master Catalog

Two Line Element Set (TLE):
1 62833U 25019E   26254.39275457  .00179517  00000-0  13717-2 0  9991
2 62833  42.9980 266.9281 0000815 324.2657  35.8156 15.70853846 93088
Source of the keplerian elements: AFSPC